{"data":{"norad_id":56361,"epoch":"2026-05-24T23:17:39.611904Z","epoch_age_seconds":77337,"freshness":"FRESH","line1":"1 56361U 23058AW  26144.97059736 -.00000303  00000+0 -16910-4 0  9990","line2":"2 56361  97.4460 144.9622 0002168  73.3555 286.7910 15.05652565169601","mean_motion":15.05652565,"eccentricity":0.0002168,"inclination_deg":97.446,"raan_deg":144.9622,"arg_perigee_deg":73.3555,"mean_anomaly_deg":286.791,"bstar":-1.691e-5,"rev_number":16960,"period_min":95.639593985615,"perigee_km":548.00137375304,"apogee_km":551.00519858112,"semimajor_km":6927.6402861671,"source":"CELESTRAK","updated_at":"2026-05-25T13:38:18.009690Z"}}